Weather History for Geneva, Switzerland

Change the Weather History Date:

Sunday, February 17, 2013

  Actual Average Record
Temperature  
Mean Temperature 33 °F -  
Max Temperature 38 °F 46 °F 53 °F (1998)
Min Temperature 28 °F 32 °F 23 °F (2008)
Degree Days  
Heating Degree Days 32    
Moisture  
Dew Point 28 °F    
Average Humidity 72    
Maximum Humidity 93    
Minimum Humidity 51    
Precipitation  
Precipitation 0.00 in 0.10 in - ()
Sea Level Pressure  
Sea Level Pressure 30.10 in    
Wind  
Wind Speed 5 mph ()    
Max Wind Speed 14 mph    
Max Gust Speed -    
Visibility 6.5 miles    
Events      
Averages and records for this station are not official NWS values.
T = Trace of Precipitation, MM = Missing Value Source: Averaged Metar Reports

Daily Weather History Graph

Daily Weather History Graph

Search for Another Location

Airport:

Trip Planner

Search our weather history database for the weather conditions in past years. The results will help you decide how hot, cold, wet, or windy it might be!

Date:

Astronomy

Feb. 17, 2013 Rise Set
Actual Time 7:35 AM CET 6:04 PM CET
Civil Twilight 7:04 AM CET 6:35 PM CET
Nautical Twilight 6:29 AM CET 7:10 PM CET
Astronomical Twilight 5:54 AM CET 7:44 PM CET
Moon 10:50 AM CET (2/17) 1:10 AM CET (2/17)
Length of Visible Light 11h 30m
Length of Day
10h 28m
Waxing Crescent, 46% of the Moon is Illuminated
Feb 17
Waxing Crescent
Feb 17
First Quarter
Feb 25
Full
Mar 4
Last Quarter
Mar 11
New

Hourly Weather History & Observations

Time (CET) Temp. Windchill Dew Point Humidity Pressure Visibility Wind Dir Wind Speed Gust Speed Precip Events Conditions
12:00 AM 33 °F - 29 °F 80% 30.22 in - NE 1.2 mph - -  
12:20 AM 33.8 °F - 30.2 °F 87% 30.15 in 6.2 mi Calm Calm - N/A   Mostly Cloudy
12:50 AM 33.8 °F - 30.2 °F 87% 30.15 in 6.2 mi Variable 1.2 mph - N/A   Mostly Cloudy
1:00 AM 33 °F - 29 °F 81% 30.22 in 9 mi NNW 1.2 mph - -   Mist
1:20 AM 33.8 °F - 30.2 °F 87% 30.15 in 6.2 mi Calm Calm - N/A   Mostly Cloudy
1:50 AM 33.8 °F - 30.2 °F 87% 30.12 in 6.2 mi Calm Calm - N/A   Mostly Cloudy
2:00 AM 33 °F - 30 °F 82% 30.21 in - North 1.2 mph - -  
2:50 AM 33.8 °F - 30.2 °F 87% 30.12 in 6.2 mi Calm Calm - N/A   Mostly Cloudy
3:00 AM 34 °F - 30 °F 80% 30.19 in - North 1.2 mph - -  
3:20 AM 33.8 °F - 30.2 °F 87% 30.12 in 6.2 mi Variable 2.3 mph - N/A   Mostly Cloudy
3:50 AM 33.8 °F - 30.2 °F 87% 30.12 in 6.2 mi NE 2.3 mph - N/A   Mostly Cloudy
4:20 AM 33.8 °F - 30.2 °F 87% 30.12 in 6.2 mi ENE 1.2 mph - N/A   Mostly Cloudy
4:50 AM 33.8 °F - 30.2 °F 87% 30.12 in 6.2 mi North 1.2 mph - N/A   Mostly Cloudy
5:00 AM 34 °F - 31 °F 82% 30.18 in - North 2.3 mph - -  
5:20 AM 33.8 °F - 32.0 °F 93% 30.12 in 6.2 mi NNE 1.2 mph - N/A   Mostly Cloudy
5:50 AM 33.8 °F 27.7 °F 30.2 °F 87% 30.09 in 6.2 mi NE 6.9 mph - N/A   Mostly Cloudy
6:00 AM 35 °F - 30 °F 74% 30.18 in - NE 10.4 mph - -  
6:20 AM 35.6 °F 27.5 °F 30.2 °F 81% 30.12 in 6.2 mi NE 11.5 mph - N/A   Mostly Cloudy
6:50 AM 35.6 °F 26.6 °F 30.2 °F 81% 30.12 in 6.2 mi NE 13.8 mph - N/A   Mostly Cloudy
7:00 AM 35 °F - 29 °F 72% 30.18 in 7 mi NE 13.8 mph - -   Mist
7:20 AM 33.8 °F 26.4 °F 30.2 °F 87% 30.12 in 5.6 mi NE 9.2 mph - N/A   Mostly Cloudy
7:50 AM 33.8 °F 27.0 °F 30.2 °F 87% 30.12 in 6.2 mi NE 8.1 mph - N/A   Mostly Cloudy
8:00 AM 34 °F - 28 °F 72% 30.18 in - NE 10.4 mph - -  
9:20 AM 35.6 °F 29.2 °F 30.2 °F 81% 30.12 in 6.2 mi NE 8.1 mph - N/A   Mostly Cloudy
9:50 AM 35.6 °F 29.2 °F 28.4 °F 75% 30.12 in 6.2 mi ENE 8.1 mph - N/A   Mostly Cloudy
10:50 AM 35.6 °F 28.6 °F 26.6 °F 70% 30.12 in 6.2 mi ENE 9.2 mph - N/A   Mostly Cloudy
11:00 AM 36 °F - 27 °F 59% 30.17 in - NE 9.2 mph - -  
11:20 AM 37.4 °F 31.4 °F 26.6 °F 65% 30.09 in 6.2 mi ENE 8.1 mph - N/A   Mostly Cloudy
11:50 AM 37.4 °F 30.3 °F 26.6 °F 65% 30.09 in 6.2 mi NE 10.4 mph - N/A   Mostly Cloudy
12:00 PM 37 °F - 26 °F 53% 30.17 in - NE 8.1 mph - -  
12:20 PM 37.4 °F 30.8 °F 28.4 °F 70% 30.09 in 6.2 mi NE 9.2 mph - N/A   Mostly Cloudy
12:50 PM 37.4 °F 31.4 °F 28.4 °F 70% 30.09 in 6.2 mi NNE 8.1 mph - N/A   Mostly Cloudy
1:00 PM 37 °F - 27 °F 55% 30.14 in 11 mi NNE 10.4 mph - -  
1:20 PM 37.4 °F 30.3 °F 28.4 °F 70% 30.09 in 6.2 mi NE 10.4 mph - N/A   Mostly Cloudy
1:50 PM 39.2 °F 32.5 °F 26.6 °F 61% 30.06 in 6.2 mi NE 10.4 mph - N/A   Scattered Clouds
2:00 PM 38 °F - 27 °F 52% 30.13 in - NE 13.8 mph - -  
2:20 PM 39.2 °F 32.5 °F 26.6 °F 61% 30.06 in 6.2 mi NE 10.4 mph - N/A   Scattered Clouds
2:50 PM 39.2 °F 32.0 °F 28.4 °F 65% 30.06 in 6.2 mi NE 11.5 mph - N/A   Partly Cloudy
3:00 PM 38 °F - 27 °F 54% 30.10 in - NNE 11.5 mph - -  
3:20 PM 39.2 °F 32.5 °F 26.6 °F 61% 30.04 in 6.2 mi NE 10.4 mph - N/A   Partly Cloudy
3:50 PM 39.2 °F 32.5 °F 28.4 °F 65% 30.04 in 6.2 mi NE 10.4 mph - N/A   Partly Cloudy
4:20 PM 39.2 °F 33.6 °F 28.4 °F 65% 30.04 in 6.2 mi NE 8.1 mph - N/A   Partly Cloudy
4:50 PM 39.2 °F 33.0 °F 26.6 °F 61% 30.04 in 6.2 mi NNE 9.2 mph - N/A   Scattered Clouds
5:00 PM 38 °F - 26 °F 51% 30.09 in - NE 11.5 mph - -  
5:20 PM 37.4 °F 31.4 °F 28.4 °F 70% 30.04 in 6.2 mi NNE 8.1 mph - N/A   Mostly Cloudy
5:50 PM 37.4 °F 32.1 °F 28.4 °F 70% 30.04 in 6.2 mi NNE 6.9 mph - N/A   Mostly Cloudy
6:00 PM 37 °F - 28 °F 59% 30.09 in - NNE 6.9 mph - -  
6:20 PM 37.4 °F 32.1 °F 28.4 °F 70% 30.04 in 6.2 mi NNE 6.9 mph - N/A   Mostly Cloudy
6:50 PM 35.6 °F 30.7 °F 28.4 °F 75% 30.04 in 6.2 mi North 5.8 mph - N/A   Mostly Cloudy
7:00 PM 36 °F - 27 °F 58% 30.10 in 12 mi North 6.9 mph - -   Mostly Cloudy
7:20 PM 35.6 °F 31.7 °F 26.6 °F 70% 30.04 in 6.2 mi North 4.6 mph - N/A   Mostly Cloudy
7:50 PM 35.6 °F 30.7 °F 26.6 °F 70% 30.04 in 6.2 mi North 5.8 mph - N/A   Mostly Cloudy
8:00 PM 36 °F - 26 °F 57% 30.11 in - North 5.8 mph - -  
8:20 PM 35.6 °F 30.7 °F 26.6 °F 70% 30.04 in 6.2 mi North 5.8 mph - N/A   Mostly Cloudy
8:50 PM 35.6 °F 30.7 °F 26.6 °F 70% 30.04 in 6.2 mi North 5.8 mph - N/A   Mostly Cloudy
9:00 PM 36 °F - 27 °F 58% 30.10 in - North 6.9 mph - -  
9:20 PM 35.6 °F 29.9 °F 26.6 °F 70% 30.04 in 6.2 mi NNE 6.9 mph - N/A   Mostly Cloudy
9:50 PM 35.6 °F 29.2 °F 26.6 °F 70% 30.04 in 6.2 mi NNE 8.1 mph - N/A   Mostly Cloudy
10:20 PM 35.6 °F 29.9 °F 26.6 °F 70% 30.04 in 6.2 mi NNE 6.9 mph - N/A   Mostly Cloudy
10:50 PM 35.6 °F 31.7 °F 26.6 °F 70% 30.04 in 6.2 mi NNE 4.6 mph - N/A   Mostly Cloudy
11:00 PM 35 °F - 26 °F 60% 30.11 in - NNE 4.6 mph - -  
11:20 PM 33.8 °F 29.6 °F 26.6 °F 75% 30.04 in 6.2 mi North 4.6 mph - N/A   Scattered Clouds
11:50 PM 32.0 °F 28.7 °F 26.6 °F 80% 30.04 in 6.2 mi Variable 3.5 mph - N/A   Scattered Clouds